Temp
9 9 10 10 10 10 11 12 13 14 14 14 14 15 15 15 14 14 14 14 14 14 14 15 16 15 16 21 23 24 23 23 23 23 25 27 27 28 28 29 30 30 31 31 32 32 31
8 8 9 9 9 9 9 11 11 13 13 13 14 14 15 15 15 14 14 14 14 14 13 15 15 14 16 19 24 22 22 22 23 24 25 26 27 28 27 28 28 29 30 30 30 30 30
8 8 8 9 9 9 9 10 11 10 11 13 14 14 14 15 15 15 14 14 13 13 13 13 14 14 17 20 23 24 23 23 24 25 26 27 27 27 28 27 29 28 27 28 28 29 29
7 8 8 8 8 9 9 9 10 10 10 11 13 14 15 14 14 14 14 13 13 12 12 12 13 14 17 21 21 21 22 22 23 24 25 25 25 25 25 26 26 26 26 26 28 30 31
7 7 7 8 8 8 9 10 9 10 10 10 12 13 14 14 14 14 13 13 12 12 12 12 13 15 18 21 20 22 23 24 24 24 24 24 24 24 24 24 24 25 25 27 28 32 31
7 7 7 7 7 7 8 8 10 9 9 10 11 12 12 14 14 13 13 11 11 11 11 12 15 17 19 20 23 22 23 23 24 25 23 23 23 23 23 24 24 26 27 28 28 30 32
6 7 7 7 7 7 7 7 9 9 9 9 10 11 12 12 13 12 11 10 10 10 12 16 18 19 24 23 24 23 23 24 24 23 21 23 22 22 24 26 26 27 27 27 29 30 29
6 6 6 6 6 6 7 7 7 8 9 10 10 11 12 11 12 12 11 13 15 20 15 14 17 19 20 22 23 23 23 23 23 22 23 24 22 25 27 27 27 26 26 26 28 29 29
6 6 6 6 6 6 6 7 7 8 9 10 10 11 10 11 11 11 12 14 16 17 17 19 16 18 20 22 22 23 23 24 23 23 24 24 26 27 26 27 26 26 26 26 26 27 28
6 6 6 6 6 6 6 6 6 7 8 10 9 10 10 10 10 11 12 14 16 16 15 17 19 18 19 22 21 23 24 24 23 23 24 24 27 27 26 25 26 25 27 26 26 26 24
6 6 6 6 6 6 6 6 5 6 7 8 9 9 9 10 12 11 12 13 15 15 13 20 21 22 21 20 22 21 23 24 23 23 24 24 24 24 24 25 25 24 26 26 25 25 24
5 5 5 5 5 5 5 5 5 5 6 7 8 9 9 10 11 12 13 13 14 12 12 17 19 21 20 20 21 24 22 24 24 23 24 24 25 24 25 26 26 26 25 25 25 23 21
5 5 5 5 5 5 5 5 5 5 5 6 6 9 9 10 12 11 11 11 11 12 15 17 18 19 19 20 20 21 22 22 21 19 20 22 23 24 26 24 25 25 24 21 20 21 21
5 5 5 5 5 5 5 5 5 5 5 6 6 6 9 10 11 11 10 11 12 12 15 21 19 19 19 21 20 20 22 22 22 21 22 20 20 23 25 23 23 23 23 21 20 22 24
5 5 5 5 5 5 5 5 5 5 5 5 5 6 8 10 11 10 11 11 12 14 17 19 19 18 19 21 21 20 21 21 22 21 21 23 22 26 25 24 23 23 22 24 22 22 21
5 5 5 5 4 4 4 4 4 4 4 5 5 6 8 10 10 10 11 10 10 16 19 18 18 20 19 20 20 20 21 21 21 22 23 23 22 24 23 23 23 23 24 21 19 17 18
4 4 4 4 4 4 4 4 4 4 4 4 5 6 9 10 9 11 11 10 9 14 18 17 18 19 20 21 21 21 21 22 22 23 22 21 20 20 21 20 21 20 19 21 20 19 18
4 4 4 4 4 4 4 4 4 4 5 5 6 7 9 9 9 9 10 9 11 13 16 12 17 19 21 21 21 22 21 22 23 24 21 19 17 16 19 20 21 21 19 17 14 14 14
4 4 4 4 4 4 3 3 4 5 7 7 7 7 8 9 9 8 8 8 9 10 10 10 12 16 20 20 18 20 21 17 20 20 19 18 15 13 13 12 17 17 18 17 11 10 14
4 4 4 4 3 3 3 4 5 5 5 7 5 7 6 9 9 8 9 8 7 9 9 10 10 14 16 12 14 14 14 15 18 18 14 17 15 15 15 15 16 15 17 17 12 12 14
4 4 4 4 3 3 3 3 5 5 5 5 4 6 9 8 8 8 10 9 8 7 7 9 9 14 13 9 9 10 11 13 14 11 14 13 12 11 9 13 15 16 16 16 14 13 13
4 4 4 3 3 3 3 4 5 5 5 5 4 6 8 11 7 8 9 8 10 8 7 8 11 11 14 11 12 10 10 11 10 11 11 11 9 9 9 13 14 14 16 17 16 16 15
4 4 4 4 3 3 4 4 5 6 5 6 6 11 12 11 8 9 9 8 11 9 7 11 11 11 9 10 11 11 9 9 9 9 8 8 8 9 9 11 13 12 14 15 16 17 16
4 4 4 3 3 3 3 4 5 8 8 9 10 14 10 9 9 9 10 11 10 12 8 9 10 9 8 8 7 7 7 8 8 8 9 8 9 11 11 12 9 14 17 17 16 16 17
4 4 4 4 3 3 3 4 4 5 8 10 10 11 11 8 10 9 10 9 10 8 7 7 8 8 8 9 7 7 7 7 8 9 11 11 11 10 10 11 13 15 15 15 14 14 16
4 4 4 4 4 3 3 4 4 5 6 7 7 10 11 8 8 8 8 9 7 6 6 5 7 7 8 7 7 7 7 7 7 8 12 12 12 11 11 11 12 14 15 15 15 12 15
4 4 4 4 4 4 3 4 4 5 5 6 6 9 11 7 8 9 8 7 7 7 6 5 5 6 8 7 8 8 8 11 8 8 9 9 10 9 11 11 13 16 16 15 11 12 15
4 4 4 4 4 4 4 4 4 5 5 5 5 7 7 5 5 8 8 6 7 8 7 6 6 7 7 7 8 9 10 11 11 12 10 10 9 9 10 10 10 16 15 13 14 15 15
4 4 4 4 4 3 4 5 5 5 6 6 5 5 6 5 5 6 6 8 9 10 8 8 9 8 8 9 10 11 11 11 11 10 12 11 11 11 11 11 14 14 14 15 14 14 14
Height
736 733 730 728 726 727 729 732 731 733 738 743 747 751 755 759 764 769 772 775 777 780 782 782 783 782 783 776 765 759 760 760 762 763 763 761 760 758 762 753 747 748 740 734 730 730 732
730 727 723 720 722 719 720 722 726 725 729 734 738 744 747 752 758 764 768 771 774 776 779 780 781 781 783 777 759 757 760 760 761 761 759 759 758 754 756 755 755 745 740 734 734 736 734
725 722 718 715 713 712 711 715 715 721 722 723 729 735 740 745 752 758 763 768 771 773 776 778 779 780 775 762 756 756 758 758 758 757 755 754 753 754 750 753 743 743 752 744 740 735 734
721 717 715 712 710 709 708 707 712 712 719 717 719 726 732 739 745 752 759 764 768 771 774 775 777 779 765 756 754 754 755 755 756 755 756 756 756 759 758 752 752 758 753 758 734 723 718
716 713 710 708 705 702 700 697 699 702 708 711 712 717 724 732 738 747 755 761 766 770 773 774 775 775 760 748 745 744 747 747 752 753 754 757 758 760 759 764 765 755 762 749 735 707 716
711 708 706 703 700 699 698 694 693 697 699 701 705 709 715 724 732 742 750 759 763 768 773 775 771 772 753 739 735 737 741 744 746 747 753 756 757 759 759 760 766 753 744 734 734 716 709
705 703 701 699 696 695 694 692 690 688 692 694 690 703 705 712 724 734 744 756 766 770 766 749 743 737 721 730 731 732 733 737 742 747 756 750 761 758 747 741 742 738 738 736 723 713 721
700 696 695 694 692 690 686 685 682 681 681 681 688 695 693 701 711 721 731 732 730 731 748 747 740 735 732 728 731 730 729 735 739 745 742 744 748 736 728 727 730 735 741 739 726 716 720
694 692 689 687 685 683 680 678 676 675 673 677 682 686 688 692 700 714 711 717 729 731 733 722 728 724 728 727 725 721 725 724 730 737 732 734 724 717 726 727 730 729 733 733 735 723 716
688 686 684 681 679 677 675 673 672 669 669 670 673 675 686 691 697 702 706 724 730 733 742 717 709 707 716 720 718 718 714 721 726 727 727 723 713 714 720 728 726 733 721 726 728 732 743
682 680 678 676 674 672 670 668 666 666 665 665 667 672 678 685 680 689 706 721 725 727 745 687 684 689 692 702 698 705 706 713 720 720 718 715 716 721 724 721 722 729 722 725 728 734 735
676 674 672 670 667 665 664 662 661 659 659 659 662 664 669 672 678 682 694 710 719 728 722 690 677 675 687 692 694 690 702 705 709 717 709 713 710 715 715 710 711 712 722 725 729 740 745
669 666 664 661 660 658 657 656 655 654 654 654 654 655 659 661 659 672 679 699 705 694 685 670 670 673 680 682 694 698 698 704 712 732 720 716 710 706 701 717 711 715 731 755 759 756 738
662 659 656 654 652 650 649 648 647 647 646 648 647 651 647 653 657 659 667 682 673 678 666 638 659 670 673 674 685 691 688 693 696 700 703 717 723 704 696 707 716 721 722 735 750 738 716
653 650 648 645 643 641 640 639 638 640 640 641 645 643 642 643 650 649 656 652 643 650 645 644 652 665 670 666 671 685 677 683 678 693 702 693 695 672 683 695 706 710 719 710 724 721 731
645 642 639 635 633 631 629 628 627 628 631 636 639 640 632 636 640 640 636 637 652 636 629 650 648 643 655 658 668 669 674 667 674 676 679 681 694 680 686 693 701 704 700 727 733 755 750
637 633 629 625 622 620 618 616 615 615 619 629 634 631 616 628 631 619 613 633 646 636 630 639 634 638 638 644 646 649 649 651 656 661 674 682 693 699 697 702 703 711 717 712 724 730 736
626 622 618 614 611 607 604 600 599 599 602 612 616 617 607 615 617 610 612 625 631 634 636 645 635 630 631 632 637 639 646 646 638 645 667 682 702 714 702 701 698 699 713 724 744 749 747
618 612 607 603 599 593 587 582 580 581 580 585 597 603 603 600 598 609 619 628 630 636 641 649 647 639 628 636 645 641 640 660 650 656 671 681 708 726 735 739 716 713 712 718 751 760 743
609 604 599 594 589 579 569 560 562 566 573 579 591 589 595 586 593 605 611 623 636 634 640 642 646 642 640 661 654 660 671 675 668 671 684 680 693 697 700 703 708 719 716 720 743 747 738
602 596 591 586 579 566 556 551 552 554 562 575 572 571 563 568 582 594 597 610 621 635 641 644 651 635 643 673 679 679 681 679 684 694 689 695 709 718 731 715 710 709 712 718 728 735 740
595 590 585 579 569 558 546 538 535 534 542 558 559 559 561 556 583 590 593 602 600 622 630 637 630 636 631 647 647 665 674 682 691 696 702 708 720 729 735 720 715 717 711 710 713 715 721
590 584 580 573 561 548 535 520 502 490 514 521 537 537 539 543 569 577 582 593 588 608 627 617 624 632 648 652 653 666 677 684 690 699 711 719 727 734 735 731 724 725 714 711 708 706 709
586 581 576 568 556 542 529 509 464 409 452 474 507 515 538 548 556 565 578 583 594 595 618 626 631 639 652 657 671 683 689 694 698 705 706 720 725 723 721 715 741 704 691 696 703 701 701
582 578 574 567 556 542 529 510 487 473 478 492 508 516 526 553 555 568 575 590 600 615 628 628 638 645 649 654 675 687 700 704 706 706 702 707 712 718 723 720 702 694 697 701 703 705 700
580 576 573 567 558 547 536 523 511 502 503 507 514 519 527 551 564 565 575 583 600 618 634 640 646 650 650 661 670 679 692 700 707 709 698 699 706 707 712 714 707 691 692 698 703 716 701
577 575 573 569 562 554 545 535 527 523 520 520 527 524 525 554 572 569 577 585 603 612 628 641 650 657 653 660 663 672 681 671 696 699 705 707 710 711 706 707 694 683 689 699 721 716 702
575 574 573 571 568 562 554 547 540 535 533 530 534 534 533 559 577 579 582 591 605 605 614 641 647 655 656 663 660 657 658 663 669 673 685 698 705 709 706 705 707 680 688 702 701 699 702
575 575 575 574 572 568 562 557 552 547 543 541 543 549 550 560 581 591 596 598 600 603 610 635 633 638 648 653 648 648 651 658 661 674 676 687 680 684 686 684 682 685 688 691 698 700 701
Wind_Speed
29 33 32 38 43 34 35 35 47 46 45 45 43 41 38 36 34 31 27 23 20 17 15 13 11 8 7 9 19 10 6 7 7 7 9 10 12 12 16 13 17 21 22 20 21 19 17
27 30 32 31 33 43 35 34 35 49 47 47 44 44 40 38 36 33 29 25 21 18 16 14 9 7 8 16 11 5 8 8 8 12 14 13 12 14 17 19 19 21 23 21 18 20 19
26 27 28 25 30 34 39 42 39 36 30 48 48 45 42 40 38 34 30 26 22 18 15 11 8 6 12 21 5 8 9 12 12 13 11 14 11 10 10 13 10 15 18 19 20 22 22
26 25 25 26 25 24 36 40 41 40 42 39 47 47 44 42 38 35 30 26 21 17 12 10 8 7 10 15 28 31 23 17 16 15 11 10 4 8 11 13 17 17 20 19 21 23 20
25 23 24 24 24 26 25 30 34 37 36 29 44 47 46 45 39 36 30 25 19 13 12 9 5 9 15 10 22 30 23 26 19 17 14 13 11 15 12 14 14 15 18 21 21 14 13
23 24 23 23 25 25 25 25 37 38 37 35 33 50 46 45 41 37 30 25 18 13 9 6 12 6 14 16 20 21 24 25 16 11 9 12 8 10 14 14 15 17 20 19 18 16 10
25 23 21 21 22 23 24 25 27 42 41 37 29 49 50 46 45 40 36 26 8 3 12 12 13 16 7 12 8 14 16 19 18 15 16 17 13 18 21 21 23 22 21 22 20 18 18
23 24 23 21 21 24 25 24 27 26 39 33 36 33 55 47 48 48 43 17 28 3 9 25 25 23 29 18 12 14 20 16 19 17 19 13 19 20 22 19 21 18 20 21 22 19 18
25 25 22 22 22 23 23 24 23 25 30 37 39 41 32 48 51 52 49 44 21 25 6 12 30 32 25 23 15 18 22 22 20 21 21 21 16 23 20 18 18 20 21 19 21 21 19
24 24 24 24 23 23 23 23 23 25 20 30 34 31 33 48 42 45 40 37 16 19 5 12 23 12 27 23 27 26 26 17 13 22 20 20 22 20 14 17 17 21 17 19 19 15 14
25 24 25 25 25 25 25 26 27 25 27 21 32 33 32 44 18 29 29 37 22 5 6 9 27 13 19 29 12 26 31 22 22 22 16 20 15 16 21 26 18 19 15 15 16 16 17
26 27 27 27 27 27 26 26 28 26 27 27 28 40 34 52 42 44 40 39 20 8 12 7 11 23 22 32 30 6 23 24 21 20 24 24 16 20 25 18 21 21 20 16 14 11 13
28 28 30 29 28 29 28 27 28 28 27 30 30 31 36 50 27 44 48 19 9 17 8 11 14 18 28 28 29 25 28 29 22 16 25 24 27 25 25 15 17 10 11 6 8 8 10
28 29 31 30 31 30 30 29 31 29 32 30 30 31 34 42 34 53 35 14 12 14 30 10 20 21 27 27 31 30 25 27 27 24 12 20 21 30 22 24 18 19 18 8 9 11 14
29 29 31 31 31 31 30 31 33 32 32 29 24 28 30 40 39 52 18 21 14 21 28 15 22 25 26 27 14 27 31 25 29 27 20 15 20 16 22 16 21 18 22 17 17 16 10
29 30 31 32 32 32 33 33 36 36 32 28 23 16 24 37 46 33 20 16 15 23 19 29 18 21 25 30 25 25 25 23 28 31 28 13 10 8 11 17 22 24 10 15 6 5 8
30 31 33 34 34 33 35 38 39 40 32 32 23 6 16 36 36 19 22 14 9 26 20 32 29 20 25 24 29 30 22 15 32 27 27 9 3 11 13 14 16 8 6 5 7 7 3
33 33 36 34 33 35 38 41 46 42 40 38 12 11 18 41 14 12 21 11 12 18 26 4 16 24 20 25 28 24 30 24 26 23 31 6 4 8 20 4 9 16 11 7 4 5 1
34 35 34 32 33 40 45 45 43 38 17 26 8 13 17 35 15 9 4 5 8 14 14 10 9 16 22 21 13 25 22 8 5 15 17 12 9 6 3 6 12 11 9 6 7 2 7
33 30 30 29 36 47 51 30 21 25 17 19 6 9 5 12 17 12 13 11 6 6 10 7 7 8 11 3 5 9 6 7 8 8 7 5 6 10 10 5 10 15 13 11 7 4 6
32 28 24 29 35 27 19 17 22 30 30 16 5 5 8 9 13 17 19 18 14 7 4 9 7 19 14 5 4 7 10 11 5 2 5 3 5 6 6 8 7 12 14 16 15 14 9
26 24 21 28 35 20 24 25 31 37 40 13 5 5 6 16 18 19 20 17 25 10 12 13 10 17 19 13 11 18 14 13 6 8 7 3 4 4 4 8 8 10 14 16 19 20 22
22 21 20 24 35 20 24 31 40 52 52 8 8 12 11 21 17 15 12 16 24 21 3 15 17 13 9 9 10 14 11 10 13 10 5 6 6 4 4 11 11 11 16 20 19 20 18
20 18 17 21 30 20 26 30 44 21 70 36 23 12 5 9 16 16 21 23 22 22 11 13 20 12 9 27 21 15 15 14 15 11 7 12 10 5 5 9 8 7 3 12 18 19 17
17 15 14 17 22 21 24 25 32 35 28 32 14 10 5 8 15 14 23 17 17 17 12 16 8 15 19 23 10 8 4 4 8 12 14 13 6 5 5 10 5 7 11 11 9 11 11
15 11 10 13 18 19 22 25 23 27 23 24 11 13 7 10 7 27 24 29 21 15 5 10 21 20 10 4 4 6 5 7 7 11 13 10 9 3 7 5 7 8 9 9 5 5 8
11 7 6 8 15 17 19 27 26 26 25 22 13 12 8 7 14 19 14 16 10 11 11 7 9 8 3 3 3 4 5 10 11 13 14 10 8 10 8 7 6 5 9 11 4 2 3
6 2 4 5 10 15 16 20 24 26 22 24 15 16 8 7 6 14 13 15 15 13 12 14 7 3 4 3 2 2 6 6 8 15 16 11 10 6 7 8 12 6 8 12 6 5 3
1 4 6 6 10 13 14 15 25 23 22 30 14 25 23 9 11 26 21 14 17 11 22 11 6 9 5 4 3 2 5 2 10 8 16 9 7 7 8 5 6 4 3 2 6 10 10
Wind_Direction
299 304 302 273 265 269 269 273 244 249 247 246 243 239 236 235 236 234 232 232 233 239 248 262 271 285 304 235 252 242 179 169 180 222 251 263 269 278 270 275 279 273 270 277 280 280 279
306 308 312 275 264 262 265 273 278 243 246 245 243 240 234 232 232 232 229 227 229 230 242 257 259 270 249 254 256 193 196 205 225 237 245 250 260 270 281 280 276 283 290 286 293 287 280
304 307 305 314 277 274 263 266 266 273 256 244 241 239 235 231 230 228 225 223 222 225 235 247 243 259 260 241 247 248 234 242 240 246 256 259 269 269 274 266 293 294 291 286 275 269 267
301 303 304 302 304 291 266 260 264 272 270 252 241 239 235 231 227 224 219 216 214 218 228 232 231 256 256 258 252 256 241 248 242 242 245 272 275 277 277 287 289 277 274 271 272 263 252
293 301 303 302 303 303 297 263 264 267 269 255 234 238 235 230 224 219 212 206 203 208 221 209 222 220 264 269 233 238 233 237 238 232 240 252 245 244 254 249 261 248 256 266 281 275 212
293 296 298 302 302 299 295 290 260 259 260 258 256 230 233 229 220 212 198 188 183 189 190 210 248 285 247 248 237 228 233 226 228 226 213 219 218 229 217 237 239 250 243 246 251 257 268
291 290 293 298 301 301 292 288 276 257 251 258 256 237 228 219 214 200 174 141 127 204 218 202 194 212 232 252 158 204 199 197 208 205 210 196 208 224 228 225 246 262 271 279 290 303 299
300 300 286 291 297 304 301 290 288 283 248 250 243 239 221 209 206 194 173 193 190 158 208 220 248 224 249 275 206 228 177 182 191 206 208 194 222 230 232 241 238 246 259 264 267 278 274
294 300 301 298 294 302 306 298 294 293 278 246 241 238 229 213 193 183 188 197 189 230 265 218 219 228 226 228 232 213 187 203 195 208 210 224 222 222 236 250 245 243 253 270 283 287 291
294 296 297 300 298 299 301 303 303 288 284 239 236 234 237 201 173 189 201 191 189 190 253 244 214 237 224 231 233 241 192 202 224 219 226 244 232 237 217 233 261 250 250 256 267 288 281
296 296 292 293 293 294 295 296 300 294 278 282 251 240 230 198 185 186 195 183 185 148 235 196 215 165 185 202 135 209 229 205 222 220 212 218 213 239 250 250 222 259 266 267 283 282 286
292 292 291 290 290 289 289 295 292 297 280 275 263 239 225 203 206 194 176 174 152 170 215 232 200 202 187 201 213 201 201 205 221 246 228 236 240 247 256 247 251 243 245 259 268 273 262
292 292 291 290 288 287 286 288 287 289 283 271 273 243 229 200 201 177 162 153 189 199 157 210 196 191 199 195 206 214 193 202 203 208 230 233 231 236 242 239 244 217 214 229 224 217 248
289 288 288 289 289 285 284 282 285 282 283 268 266 263 222 206 191 163 160 176 199 175 202 161 180 192 195 189 206 205 208 208 202 214 223 219 237 224 218 219 218 207 206 198 223 225 253
292 291 290 288 287 283 281 282 279 280 276 256 264 269 242 210 194 163 173 198 183 192 209 211 178 185 198 203 188 205 210 214 206 212 213 216 229 220 210 199 221 206 219 223 271 284 286
296 293 291 289 285 284 281 282 281 279 268 249 254 250 248 212 194 183 188 194 193 205 189 203 196 198 189 198 199 197 191 215 215 208 225 244 240 217 157 172 216 235 249 210 217 192 224
296 294 290 288 287 285 283 284 281 278 259 238 229 235 221 205 194 193 200 191 187 208 219 191 214 192 201 195 197 194 198 213 199 199 211 195 229 177 160 205 194 184 231 182 209 225 245
299 296 295 292 289 291 287 284 281 274 264 236 201 219 186 174 201 208 202 167 172 192 212 278 223 216 211 202 197 206 207 203 189 203 194 125 143 190 194 185 264 210 204 162 189 201 207
302 299 297 297 299 294 290 284 272 264 234 172 186 208 198 175 210 203 219 119 166 167 184 171 178 227 223 226 219 206 191 10 118 154 167 155 156 131 175 327 268 212 213 125 102 77 207
309 301 302 303 305 301 291 272 240 230 232 197 159 192 216 197 201 194 175 169 132 190 158 168 160 211 189 68 91 171 136 174 173 153 67 164 163 201 193 117 163 205 209 194 141 191 230
312 309 311 313 312 314 293 276 263 252 235 219 183 186 194 173 184 181 180 164 146 141 125 161 181 195 166 130 121 161 139 143 107 56 108 105 146 159 114 178 190 199 205 202 203 219 225
316 317 317 316 320 303 300 298 278 249 231 206 192 148 204 172 148 171 173 182 167 140 153 185 188 194 187 173 183 167 147 159 150 144 105 53 109 103 168 215 229 243 240 222 222 224 228
322 320 321 322 324 312 313 316 295 256 219 169 196 157 181 162 164 167 177 163 180 148 30 192 168 151 167 166 110 116 90 83 132 135 122 118 129 133 168 213 231 254 233 238 242 245 251
324 327 329 333 334 322 326 339 2 188 172 157 175 160 140 162 166 171 165 164 168 182 129 157 147 129 132 109 91 76 72 102 124 132 138 139 141 163 165 148 215 240 198 219 235 244 244
325 330 335 344 346 354 357 13 32 48 113 131 135 152 128 144 163 149 155 137 137 116 122 130 141 130 135 113 100 95 70 91 163 176 174 156 165 152 174 195 276 178 179 203 208 237 249
330 333 344 359 1 3 8 28 47 62 75 93 85 146 118 119 179 146 142 144 133 124 100 113 120 137 129 95 114 141 161 148 154 168 188 178 190 202 183 206 223 126 99 60 37 249 237
326 337 357 20 21 21 23 30 51 75 80 86 56 137 119 104 141 140 140 134 132 120 119 122 137 145 164 113 123 148 136 140 156 166 180 186 189 206 209 213 240 217 140 128 173 171 35
330 1 41 55 42 31 31 34 51 58 74 91 68 82 100 101 77 115 128 127 127 135 138 142 123 161 151 134 118 137 141 168 157 166 168 174 172 190 216 220 241 199 202 206 222 276 278
112 131 97 85 61 45 48 54 53 57 74 88 73 77 87 77 98 87 84 101 115 132 127 166 117 142 155 179 174 118 119 127 150 156 167 192 198 172 189 191 123 138 239 264 273 272 272